Terminal Aerodrome Forecast
Issued by NWS Aberdeen, SD

Home | Current Version | Previous Version | Text Only | Print | Product List | Glossary On
Versions: 1 2 3 4 5 6 7 8 9 10 11 12 13 14 15 16 17 18 19 20 21 22 23 24 25 26 27 28 29 30 31 32 33 34 35 36 37 38 39 40 41 42 43 44 45 46 47 48 49 50
000
FTUS43 KABR 061453 AAB
TAFABR
TAF AMD
KABR 061453Z 0615/0712 36013KT 1 1/2SM HZ BKN028
     FM061800 36014G24KT 2SM HZ BKN050
     FM070200 VRB04KT 3SM HZ SKC=

USA.gov is the U.S. government's official web portal to all federal, state and local government web resources and services.